Location: Caixon
(43.4106°N, 0.0273°E)
Time: 03:27:34
(UTC+00:00)

Cosmos 2341 Rocket - Pass Details

Date: 16 October 2021
Orbit: 967 x 1005 km, 82.9° (Epoch: 30 November)

Event Time Altitude Azimuth Distance (km) Brightness Sun altitude
Rises 04:07:04 0° 354° (N) 3,723 7.1 -23.9°
Reaches altitude 10° 04:09:39 10° 358° (N) 2,765 6.4 -23.5°
Maximum altitude 04:15:56 64° 79° (E) 1,089 4.4 -22.4°
Drops below altitude 10° 04:22:07 10° 161° (SSE) 2,721 6.5 -21.2°
Sets 04:24:38 0° 164° (SSE) 3,659 7.1 -20.8°
